Wind_Speed
17 14 12 10 8 9 12 15 15 15 16 15 14 13 12 12 13 13 14 13 12 11 11 11 10 9 9 8 9 8 6 4
14 15 13 10 8 6 8 10 13 14 13 14 14 13 12 12 13 13 12 12 12 11 10 9 8 8 8 7 5 5 4 3
11 12 14 11 8 6 5 6 9 11 12 12 12 12 11 11 12 13 12 11 10 9 9 8 6 4 5 4 4 4 4 3
6 8 10 11 9 6 5 2 5 7 9 11 11 10 10 10 11 12 12 11 9 8 7 7 5 5 5 5 5 4 4 3
6 4 6 7 8 7 4 2 1 3 6 7 8 10 11 10 9 9 9 10 9 8 7 7 7 6 6 6 6 7 6 4
7 7 4 3 4 5 5 2 1 2 5 7 8 9 9 10 10 10 10 10 10 10 10 9 9 9 9 8 7 6 5 4
10 9 8 6 4 2 2 3 2 3 5 6 9 11 11 11 11 10 10 10 10 10 10 9 9 9 8 7 6 6 6 5
13 11 10 9 8 7 4 3 3 4 5 7 8 9 11 13 13 13 13 13 12 12 11 11 11 11 11 10 9 8 7 7
20 17 13 12 12 11 10 7 7 6 6 8 9 10 11 12 13 13 13 13 13 13 13 13 14 13 12 11 10 9 8 8
29 25 20 18 16 15 14 13 10 9 9 9 10 12 12 12 14 15 14 15 15 15 14 14 15 14 13 12 12 12 12 10
36 33 28 24 23 20 18 17 15 12 10 12 12 12 13 14 16 16 16 17 16 16 16 16 16 15 14 13 14 15 14 14
44 40 38 35 31 27 23 20 20 17 16 15 15 15 14 14 14 15 16 17 18 17 18 16 15 15 16 15 14 14 14 14
52 48 45 44 38 34 29 27 27 25 24 22 19 18 17 18 17 16 15 15 17 18 16 17 18 18 17 17 15 16 17 16
60 54 50 48 46 41 40 37 35 33 31 28 25 22 21 20 21 22 20 20 19 18 19 21 21 20 20 20 18 19 22 20
63 60 57 53 52 49 48 46 44 39 34 32 32 30 27 26 26 27 27 26 26 26 25 25 26 26 25 24 25 25 28 26
69 66 64 61 59 57 55 49 46 42 40 38 38 38 35 32 33 33 32 31 30 31 33 32 34 32 33 32 33 32 32 30
74 72 70 67 65 62 58 56 53 49 47 45 44 42 42 41 39 38 37 36 35 35 37 37 38 39 39 39 39 37 35 35
77 77 75 73 71 68 64 60 58 55 54 50 48 49 48 49 47 43 42 42 41 40 41 42 43 43 44 44 42 40 39 38
83 80 80 79 74 72 69 65 64 61 61 59 54 55 55 50 50 51 50 48 46 47 47 48 48 49 49 47 45 43 43 42
84 84 81 79 78 74 73 72 70 67 63 62 59 58 59 59 58 58 55 54 53 53 54 54 54 54 54 51 48 47 46 47
Wind_Direction
29 32 31 55 83 101 106 109 109 109 110 114 119 121 121 121 120 122 122 122 123 125 131 133 138 144 145 146 143 144 152 140
33 29 34 28 54 88 111 117 117 116 115 120 126 125 125 126 127 128 129 131 132 135 136 138 145 149 150 153 156 170 171 172
35 27 28 33 25 49 95 124 131 128 127 126 133 130 130 130 135 135 136 139 141 142 141 140 138 150 163 175 182 186 186 182
12 21 22 24 30 26 35 93 143 149 143 141 142 145 146 144 145 147 150 154 158 162 165 164 168 163 163 163 170 169 168 172
300 342 8 16 18 26 27 30 127 181 178 174 168 165 167 171 175 176 175 180 183 186 190 192 188 194 202 205 213 216 219 226
259 273 293 341 3 12 13 8 253 222 217 217 206 201 195 191 194 197 203 205 204 206 209 213 217 217 219 227 236 251 266 290
253 245 251 262 281 309 341 341 286 235 229 220 222 222 220 224 225 222 221 227 234 233 229 228 237 247 247 245 253 268 281 281
239 236 243 243 250 256 253 261 294 268 242 239 229 222 225 226 228 233 234 233 235 240 244 242 239 246 258 263 260 246 235 224
241 229 226 241 240 245 246 235 244 260 266 249 243 239 232 233 232 232 236 236 237 236 239 241 241 239 239 244 247 240 229 229
242 228 228 236 237 238 242 245 235 243 253 263 257 251 248 243 240 239 236 236 237 237 238 241 240 238 230 223 228 234 242 246
244 234 224 234 242 242 237 241 240 239 245 254 259 261 257 254 252 250 244 240 239 240 239 239 239 234 223 222 227 231 238 247
251 246 241 243 248 244 246 240 234 236 239 241 251 255 258 258 257 256 252 248 243 235 235 230 231 230 232 237 234 233 238 246
251 252 247 245 246 247 246 248 244 233 239 240 240 248 253 253 255 255 253 249 243 239 233 231 232 235 236 239 242 247 251 257
249 249 246 245 246 240 243 242 240 240 239 244 245 247 252 253 253 252 248 249 251 246 241 241 246 245 238 246 249 246 254 260
245 247 246 243 243 244 242 241 242 238 239 245 247 244 246 252 251 252 251 248 250 253 251 250 251 252 253 253 252 256 262 268
239 243 246 245 242 243 244 244 242 244 243 242 246 251 246 243 250 253 254 254 252 254 255 254 255 255 255 254 255 257 263 269
235 238 241 243 245 245 244 245 247 243 242 245 248 247 250 249 244 247 254 257 256 255 255 256 256 256 259 261 261 262 263 265
236 233 236 239 242 244 247 246 247 247 245 247 249 250 250 253 253 249 248 249 253 254 254 255 256 257 258 261 263 266 269 270
236 235 233 236 238 242 245 246 244 249 251 248 247 243 244 246 251 253 255 255 251 251 251 253 256 257 257 259 262 265 266 268
236 237 235 234 235 235 239 243 242 246 247 251 248 249 243 242 242 243 245 248 252 251 251 251 251 253 255 258 259 261 264 267
Height
5898 5897 5897 5896 5895 5894 5893 5892 5892 5892 5893 5895 5897 5898 5899 5899 5899 5899 5900 5901 5902 5903 5904 5904 5904 5905 5905 5905 5906 5906 5906 5906
5900 5899 5898 5897 5897 5896 5895 5895 5894 5894 5895 5896 5898 5899 5900 5900 5901 5901 5902 5902 5904 5904 5905 5906 5906 5906 5906 5906 5907 5907 5907 5907
5900 5900 5899 5898 5898 5897 5896 5896 5896 5896 5896 5897 5898 5899 5900 5901 5901 5902 5903 5904 5904 5905 5906 5906 5907 5907 5907 5907 5907 5907 5908 5907
5900 5900 5900 5899 5898 5898 5897 5897 5897 5897 5897 5897 5898 5900 5901 5901 5902 5903 5903 5904 5905 5906 5906 5907 5907 5907 5907 5907 5907 5907 5907 5907
5900 5899 5899 5899 5899 5898 5898 5898 5897 5897 5897 5898 5898 5899 5900 5902 5903 5903 5904 5905 5905 5905 5905 5906 5906 5907 5907 5907 5906 5907 5906 5906
5898 5898 5898 5898 5898 5898 5898 5897 5898 5897 5897 5897 5898 5899 5900 5900 5902 5903 5903 5904 5904 5904 5904 5904 5904 5905 5905 5905 5905 5904 5904 5904
5897 5896 5896 5896 5896 5896 5896 5896 5897 5897 5897 5897 5897 5897 5898 5899 5900 5900 5901 5902 5902 5902 5903 5903 5902 5902 5902 5902 5903 5902 5902 5902
5894 5893 5894 5894 5893 5894 5894 5894 5894 5895 5895 5896 5896 5896 5897 5897 5898 5899 5899 5899 5900 5900 5901 5901 5901 5900 5900 5900 5901 5901 5901 5901
5889 5890 5889 5890 5891 5891 5892 5892 5892 5892 5893 5893 5894 5894 5894 5895 5895 5895 5896 5897 5897 5898 5898 5899 5899 5899 5899 5899 5899 5899 5900 5900
5881 5883 5884 5885 5887 5887 5888 5889 5889 5890 5890 5890 5891 5891 5892 5892 5893 5893 5893 5894 5894 5895 5895 5896 5896 5896 5896 5897 5897 5898 5898 5898
5874 5876 5878 5880 5882 5883 5884 5885 5886 5886 5887 5888 5888 5889 5889 5889 5890 5890 5890 5891 5891 5892 5892 5892 5893 5893 5894 5895 5895 5896 5896 5896
5864 5869 5871 5873 5875 5877 5879 5880 5880 5881 5882 5883 5884 5885 5886 5886 5887 5887 5887 5888 5888 5888 5888 5889 5890 5891 5892 5892 5892 5893 5893 5893
5854 5859 5863 5862 5867 5872 5873 5875 5875 5876 5876 5878 5878 5880 5881 5882 5883 5883 5884 5884 5884 5885 5885 5886 5887 5887 5888 5888 5889 5889 5889 5889
5841 5847 5851 5856 5857 5860 5863 5865 5865 5868 5870 5872 5873 5874 5875 5877 5878 5879 5880 5881 5881 5881 5882 5882 5882 5883 5884 5884 5884 5885 5883 5883
5828 5832 5837 5842 5846 5848 5851 5854 5856 5859 5863 5866 5866 5865 5868 5870 5872 5872 5873 5875 5876 5875 5876 5877 5876 5877 5878 5880 5879 5879 5877 5877
5813 5817 5822 5828 5832 5835 5839 5845 5849 5854 5854 5854 5856 5858 5860 5861 5863 5864 5865 5867 5869 5869 5868 5869 5869 5870 5869 5871 5871 5872 5871 5872
5796 5802 5807 5812 5817 5822 5827 5832 5838 5841 5843 5846 5847 5847 5850 5852 5853 5855 5857 5858 5859 5860 5860 5860 5860 5860 5861 5860 5861 5863 5865 5865
5775 5786 5791 5794 5800 5807 5814 5820 5825 5827 5831 5836 5838 5839 5839 5841 5843 5845 5846 5847 5849 5850 5849 5849 5850 5850 5851 5850 5851 5852 5852 5852
5755 5762 5773 5780 5786 5792 5799 5804 5807 5811 5815 5819 5820 5822 5824 5828 5830 5833 5835 5836 5836 5836 5837 5837 5838 5838 5839 5841 5842 5843 5842 5843
5739 5745 5753 5762 5771 5776 5782 5786 5790 5794 5798 5802 5806 5809 5811 5811 5812 5814 5816 5818 5820 5821 5822 5823 5824 5823 5825 5827 5828 5830 5830 5831